PICASSO-BEL (46281 NORAD) Tracking and Keplerian Element Data

This shows tracking and keplerian element data for the satellite.

Feedback or suggestion? Click here.




ElementValue
Catalog46281
NamePICASSO-BEL
Epoch Orbit1342
Epoch Day336.14744168
Epoch Year2020
RAAN47.5532
Inclination97.5106
Eccentricity0.0005043
Argument of Perigee54.8886
Mean Anonmoly305.2816
Mean Motion15.10034189
Decay Rate3.135E-05
L11 46281U 20061K 20336.14744168 .00003135 00000-0 19660-3 0 9996
L22 46281 97.5106 47.5532 0005043 54.8886 305.2816 15.10034189 13425

Live tracking and technical data element details for PICASSO-BEL (NORAD 46281). PICASSO-BEL can be tracked NOW for your location showing map with azimuth and elevation plus other details from your city location.

Track the satellite on the map from your city or location and see movement details for azimuth, elevation, latitude, longitude, range, height, and movement on the map or in text.







IsCatalogInMostPopularTable: catalog: 46281, numindb: 16
Update: records affected: 1



GetName: 46281 PICASSO-BEL

Hit Count: updated at: Wed, 02 Dec 2020 06:42:34 GMT